• In Uzbekistan
  • List of Countries
  • For 7 days
  • Water Temperature
  • Satellite Maps
  • Weather Map
  • Weather Widgets
  • user-avatar
    Login

    Hourly Weather Graz

    Today, 24 October, Wednesday

    Time Temperature Precipitation Wind Pressure Humidity
    00:00 +8°C° 0 mm 2 mps 723 mmHg 70%
    01:00 +8°C° 0 mm 2 mps 723 mmHg 71%
    02:00 +8°C° 0 mm 2 mps 722 mmHg 72%
    03:00 +8°C° 0 mm 2 mps 721 mmHg 72%
    04:00 +8°C° 0 mm 2 mps 721 mmHg 73%
    05:00 +8°C° 0 mm 2 mps 720 mmHg 74%
    06:00 +9°C° 0 mm 3 mps 720 mmHg 75%
    07:00 +9°C° 0 mm 3 mps 720 mmHg 75%
    08:00 +11°C° 0 mm 3 mps 720 mmHg 69%
    09:00 +13°C° 0 mm 4 mps 720 mmHg 63%
    10:00 +16°C° 0 mm 5 mps 720 mmHg 57%
    11:00 +16°C° 0.1 mm 6 mps 721 mmHg 56%
    12:00 +17°C° 0.1 mm 6 mps 721 mmHg 55%
    13:00 +17°C° 0.1 mm 7 mps 721 mmHg 55%
    14:00 +16°C° 0.4 mm 6 mps 721 mmHg 59%
    15:00 +15°C° 0.4 mm 4 mps 721 mmHg 63%
    16:00 +14°C° 0.4 mm 3 mps 722 mmHg 67%
    17:00 +13°C° 0.8 mm 3 mps 722 mmHg 72%
    18:00 +13°C° 0.8 mm 2 mps 723 mmHg 78%
    19:00 +12°C° 0.8 mm 2 mps 724 mmHg 83%
    20:00 +12°C° 0.5 mm 2 mps 724 mmHg 85%
    21:00 +10°C° 0.5 mm 2 mps 725 mmHg 87%
    22:00 +10°C° 0.5 mm 2 mps 725 mmHg 89%
    23:00 +10°C° 0.2 mm 2 mps 725 mmHg 90%

    Tomorrow, 25 October, Thursday

    Time Temperature Precipitation Wind Pressure Humidity
    00:00 +10°C° 0.2 mm 1 mps 725 mmHg 91%
    01:00 +10°C° 0.2 mm 1 mps 725 mmHg 92%
    02:00 +10°C° 0.1 mm 1 mps 725 mmHg 92%
    03:00 +10°C° 0.1 mm 1 mps 725 mmHg 92%
    04:00 +10°C° 0.1 mm 1 mps 725 mmHg 93%
    05:00 +9°C° 0 mm 2 mps 725 mmHg 93%
    06:00 +9°C° 0 mm 2 mps 725 mmHg 93%
    07:00 +9°C° 0 mm 2 mps 725 mmHg 93%
    08:00 +10°C° 0 mm 2 mps 725 mmHg 86%
    09:00 +13°C° 0 mm 2 mps 725 mmHg 79%
    10:00 +15°C° 0 mm 2 mps 725 mmHg 71%
    11:00 +16°C° 0 mm 2 mps 725 mmHg 66%
    12:00 +17°C° 0 mm 2 mps 724 mmHg 60%
    13:00 +19°C° 0 mm 2 mps 724 mmHg 55%
    14:00 +19°C° 0 mm 1 mps 724 mmHg 58%
    15:00 +18°C° 0 mm 1 mps 723 mmHg 62%
    16:00 +18°C° 0 mm 1 mps 723 mmHg 66%
    17:00 +15°C° 0 mm 1 mps 723 mmHg 73%
    18:00 +13°C° 0 mm 1 mps 723 mmHg 79%
    19:00 +12°C° 0 mm 1 mps 723 mmHg 86%
    20:00 +11°C° 0 mm 1 mps 723 mmHg 87%
    21:00 +11°C° 0 mm 1 mps 724 mmHg 89%
    22:00 +11°C° 0 mm 1 mps 724 mmHg 90%
    23:00 +10°C° 0 mm 1 mps 724 mmHg 91%

    Day after tomorrow, 26 October, Friday

    Time Temperature Precipitation Wind Pressure Humidity
    00:00 +10°C° 0 mm 1 mps 723 mmHg 91%
    01:00 +10°C° 0 mm 1 mps 723 mmHg 92%
    02:00 +10°C° 0 mm 1 mps 723 mmHg 92%
    03:00 +9°C° 0 mm 1 mps 723 mmHg 92%
    04:00 +9°C° 0 mm 1 mps 722 mmHg 92%
    05:00 +8°C° 0 mm 0 mps 722 mmHg 92%
    06:00 +8°C° 0 mm 0 mps 722 mmHg 91%
    07:00 +8°C° 0 mm 0 mps 722 mmHg 91%
    08:00 +11°C° 0 mm 1 mps 722 mmHg 84%
    09:00 +13°C° 0 mm 1 mps 722 mmHg 77%
    10:00 +15°C° 0 mm 1 mps 722 mmHg 69%
    11:00 +16°C° 0 mm 1 mps 721 mmHg 66%
    12:00 +18°C° 0 mm 1 mps 721 mmHg 63%
    13:00 +19°C° 0 mm 1 mps 720 mmHg 60%
    14:00 +19°C° 0 mm 1 mps 720 mmHg 65%
    15:00 +18°C° 0 mm 1 mps 719 mmHg 70%
    16:00 +16°C° 0 mm 1 mps 719 mmHg 75%
    17:00 +15°C° 0 mm 1 mps 719 mmHg 81%
    18:00 +13°C° 0 mm 1 mps 719 mmHg 87%
    19:00 +12°C° 0 mm 1 mps 719 mmHg 93%
    20:00 +12°C° 0 mm 1 mps 719 mmHg 93%
    21:00 +11°C° 0 mm 1 mps 719 mmHg 94%
    22:00 +11°C° 0 mm 1 mps 719 mmHg 94%
    23:00 +11°C° 0 mm 1 mps 719 mmHg 94%

    27 October, Saturday

    Time Temperature Precipitation Wind Pressure Humidity
    00:00 +11°C° 0 mm 1 mps 719 mmHg 94%
    01:00 +10°C° 0 mm 1 mps 719 mmHg 94%
    02:00 +10°C° 0 mm 1 mps 719 mmHg 94%
    03:00 +10°C° 0 mm 1 mps 719 mmHg 94%
    04:00 +10°C° 0 mm 1 mps 719 mmHg 93%
    05:00 +10°C° 0.4 mm 1 mps 719 mmHg 93%
    06:00 +10°C° 0.4 mm 1 mps 719 mmHg 93%
    07:00 +11°C° 0.4 mm 1 mps 719 mmHg 93%
    08:00 +10°C° 1.1 mm 1 mps 719 mmHg 93%
    09:00 +9°C° 1.1 mm 2 mps 719 mmHg 93%
    10:00 +9°C° 1.1 mm 2 mps 719 mmHg 93%
    11:00 +8°C° 2.7 mm 2 mps 719 mmHg 94%
    12:00 +8°C° 2.7 mm 2 mps 719 mmHg 94%
    13:00 +7°C° 2.7 mm 2 mps 719 mmHg 95%
    14:00 +7°C° 3.4 mm 2 mps 718 mmHg 95%
    15:00 +6°C° 3.4 mm 2 mps 718 mmHg 95%
    16:00 +6°C° 3.4 mm 2 mps 718 mmHg 95%
    17:00 +6°C° 2 mm 2 mps 718 mmHg 95%
    18:00 +6°C° 2 mm 2 mps 718 mmHg 95%
    19:00 +5°C° 2 mm 2 mps 718 mmHg 95%
    20:00 +5°C° 1.5 mm 2 mps 718 mmHg 95%
    21:00 +6°C° 1.5 mm 1 mps 718 mmHg 95%
    22:00 +6°C° 1.5 mm 1 mps 718 mmHg 95%
    23:00 +6°C° 0.6 mm 1 mps 718 mmHg 95%

    28 October, Sunday

    Time Temperature Precipitation Wind Pressure Humidity
    00:00 +6°C° 0.6 mm 1 mps 718 mmHg 95%
    01:00 +6°C° 0.6 mm 1 mps 718 mmHg 95%
    02:00 +6°C° 0.3 mm 1 mps 717 mmHg 95%
    03:00 +6°C° 0.3 mm 1 mps 717 mmHg 95%
    04:00 +6°C° 0.3 mm 1 mps 717 mmHg 96%
    05:00 +6°C° 0.2 mm 1 mps 717 mmHg 96%
    06:00 +6°C° 0.2 mm 1 mps 716 mmHg 96%
    07:00 +5°C° 0.2 mm 2 mps 716 mmHg 96%
    08:00 +6°C° 0.1 mm 2 mps 716 mmHg 96%
    09:00 +6°C° 0.1 mm 2 mps 716 mmHg 96%
    10:00 +7°C° 0.1 mm 2 mps 715 mmHg 96%
    11:00 +8°C° 0.3 mm 2 mps 715 mmHg 95%
    12:00 +9°C° 0.3 mm 1 mps 715 mmHg 95%
    13:00 +10°C° 0.3 mm 1 mps 714 mmHg 94%
    14:00 +10°C° 0.7 mm 1 mps 714 mmHg 95%
    15:00 +10°C° 0.7 mm 1 mps 714 mmHg 96%
    16:00 +10°C° 0.7 mm 1 mps 714 mmHg 97%
    17:00 +11°C° 0.8 mm 1 mps 714 mmHg 98%
    18:00 +11°C° 0.8 mm 1 mps 714 mmHg 98%
    19:00 +11°C° 0.8 mm 1 mps 715 mmHg 98%
    20:00 +11°C° 0.8 mm 1 mps 715 mmHg 98%
    21:00 +12°C° 0.8 mm 1 mps 715 mmHg 98%
    22:00 +12°C° 0.8 mm 1 mps 715 mmHg 97%
    23:00 +12°C° 0.6 mm 1 mps 715 mmHg 98%

    29 October, Monday

    Time Temperature Precipitation Wind Pressure Humidity
    00:00 +12°C° 0.6 mm 1 mps 715 mmHg 98%
    01:00 +12°C° 0.6 mm 1 mps 714 mmHg 98%
    02:00 +12°C° 0.4 mm 1 mps 714 mmHg 98%
    03:00 +12°C° 0.4 mm 1 mps 714 mmHg 98%
    04:00 +12°C° 0.4 mm 1 mps 713 mmHg 98%
    05:00 +13°C° 0.8 mm 1 mps 713 mmHg 98%
    06:00 +13°C° 0.8 mm 1 mps 713 mmHg 98%
    07:00 +13°C° 0.8 mm 1 mps 713 mmHg 98%
    08:00 +13°C° 0.2 mm 1 mps 714 mmHg 97%
    09:00 +14°C° 0.2 mm 1 mps 714 mmHg 96%
    10:00 +15°C° 0.2 mm 1 mps 714 mmHg 95%
    11:00 +16°C° 0 mm 2 mps 714 mmHg 93%
    12:00 +16°C° 0 mm 2 mps 714 mmHg 90%
    13:00 +17°C° 0 mm 2 mps 714 mmHg 87%
    14:00 +17°C° 0 mm 2 mps 714 mmHg 88%
    15:00 +16°C° 0 mm 1 mps 714 mmHg 89%
    16:00 +16°C° 0 mm 1 mps 714 mmHg 90%
    17:00 +15°C° 0 mm 1 mps 714 mmHg 92%
    18:00 +15°C° 0 mm 1 mps 715 mmHg 94%
    19:00 +14°C° 0 mm 1 mps 715 mmHg 96%
    20:00 +14°C° 0 mm 1 mps 715 mmHg 96%
    21:00 +13°C° 0 mm 1 mps 715 mmHg 96%
    22:00 +13°C° 0 mm 1 mps 715 mmHg 96%
    23:00 +13°C° 0 mm 1 mps 715 mmHg 97%

    30 October, Tuesday

    Time Temperature Precipitation Wind Pressure Humidity
    00:00 +13°C° 0 mm 1 mps 714 mmHg 97%
    01:00 +13°C° 0 mm 1 mps 714 mmHg 98%
    02:00 +13°C° 0.1 mm 1 mps 714 mmHg 98%
    03:00 +13°C° 0.1 mm 1 mps 714 mmHg 98%
    04:00 +13°C° 0.1 mm 1 mps 713 mmHg 98%
    05:00 +13°C° 0.1 mm 1 mps 713 mmHg 98%
    06:00 +13°C° 0.1 mm 2 mps 714 mmHg 98%
    07:00 +13°C° 0.1 mm 2 mps 714 mmHg 98%
    08:00 +14°C° 0 mm 2 mps 714 mmHg 96%
    09:00 +14°C° 0 mm 1 mps 713 mmHg 94%
    10:00 +15°C° 0 mm 1 mps 713 mmHg 92%
    11:00 +15°C° 0.2 mm 1 mps 713 mmHg 91%
    12:00 +15°C° 0.2 mm 2 mps 713 mmHg 90%
    13:00 +15°C° 0.2 mm 2 mps 713 mmHg 88%
    14:00 +15°C° 0.8 mm 2 mps 713 mmHg 90%
    15:00 +14°C° 0.8 mm 1 mps 712 mmHg 92%
    16:00 +13°C° 0.8 mm 1 mps 712 mmHg 94%
    17:00 +13°C° 0.9 mm 1 mps 712 mmHg 94%
    18:00 +12°C° 0.9 mm 1 mps 712 mmHg 95%
    19:00 +12°C° 0.9 mm 1 mps 713 mmHg 95%
    20:00 +10°C° 0 mm 2 mps 713 mmHg 94%
    21:00 +9°C° 0 mm 2 mps 714 mmHg 94%
    22:00 +8°C° 0 mm 2 mps 714 mmHg 93%
    23:00 +8°C° 0 mm 2 mps 715 mmHg 93%
    Show more